This is the latest recevied weather packets stored in our database for station/object WW6Q. If no packets are shown the sender has not sent any weather packets the latest 10 day(s).
| Time | Temp. | Humidity | Pressure | Rain* | Wind** | Luminosity | Snow |
|---|---|---|---|---|---|---|---|
| 1788254056 | 22.78° C | 87% | 1014.7 hPa | 0 mm | - | 0 W/m² | - |
| 1788253752 | 22.78° C | 86% | 1014.7 hPa | 0 mm | - | 0 W/m² | - |
| 1788253451 | 22.78° C | 86% | 1014.8 hPa | 0 mm | - | 0 W/m² | - |
| 1788253147 | 22.78° C | 85% | 1014.7 hPa | 0 mm | - | 0 W/m² | - |
| 1788252843 | 22.78° C | 84% | 1014.5 hPa | 0 mm | - | 0 W/m² | - |
| 1788252539 | 23.33° C | 84% | 1014.6 hPa | 0 mm | - | 0 W/m² | - |
| 1788252235 | 23.33° C | 84% | 1014.3 hPa | 0 mm | - | 0 W/m² | - |
| 1788251930 | 23.33° C | 83% | 1014.5 hPa | 0 mm | - | 0 W/m² | - |
| 1788251630 | 23.33° C | 83% | 1014.6 hPa | 0 mm | - | 0 W/m² | - |
| 1788251328 | 23.89° C | 82% | 1014.4 hPa | 0 mm | - | 0 W/m² | - |
| 1788251023 | 23.89° C | 82% | 1014.7 hPa | 0 mm | - | 0 W/m² | - |
| 1788250718 | 23.89° C | 82% | 1014.4 hPa | 0 mm | - | 0 W/m² | - |
| 1788250414 | 23.89° C | 82% | 1014.5 hPa | 0 mm | - | 0 W/m² | - |
| 1788250113 | 23.89° C | 82% | 1014.3 hPa | 0 mm | - | 0 W/m² | - |
| 1788249808 | 23.89° C | 81% | 1014.4 hPa | 0 mm | - | 0 W/m² | - |
| 1788249502 | 23.89° C | 81% | 1014.5 hPa | 0 mm | - | 0 W/m² | - |
| 1788249197 | 23.89° C | 81% | 1014.4 hPa | 0 mm | - | 0 W/m² | - |
| 1788248892 | 23.89° C | 81% | 1014.4 hPa | 0 mm | - | 0 W/m² | - |
| 1788248587 | 23.89° C | 81% | 1014.3 hPa | 0 mm | - | 0 W/m² | - |
| 1788248283 | 24.44° C | 81% | 1014.5 hPa | 0 mm | - | 0 W/m² | - |
| 1788247980 | 23.89° C | 81% | 1014.2 hPa | 0 mm | - | 0 W/m² | - |
| 1788247674 | 23.89° C | 82% | 1014.2 hPa | 0 mm | - | 0 W/m² | - |
| 1788247368 | 23.89° C | 82% | 1014.4 hPa | 0 mm | - | 0 W/m² | - |
| 1788247068 | 23.89° C | 82% | 1014.2 hPa | 0 mm | - | 0 W/m² | - |
| 1788246768 | 23.33° C | 84% | 1014.2 hPa | 0 mm | - | 0 W/m² | - |
* Rain latest hour (hover to see other rain measurements)
** Current wind speed in m/s (hover to see current wind gust speed)